Location: Four Corners
(38.2757°N, 122.4608°W)
Time: 04:34:50
(UTC+00:00)

Envisat - Visible Passes

Search period start: 26 February 2021 00:00
Search period end: 08 March 2021 00:00
Orbit: 764 x 766 km, 98.1° (Epoch: 25 February)

Date Brightness Start Highest point End Pass type
(mag) Time Alt. Az. Time Alt. Az. Time Alt. Az.
26 Feb 4.8 13:10:01 10° NNE 13:14:36 33° E 13:19:09 10° SSE visible
27 Feb 6.0 12:34:46 10° ENE 12:37:29 14° E 12:40:11 10° ESE visible
27 Feb 3.1 14:11:51 10° N 14:16:52 59° WNW 14:21:50 10° SSW visible
28 Feb 3.6 13:35:03 10° NNE 13:40:04 60° E 13:45:05 10° S visible
01 Mar 6.6 02:30:08 10° WSW 02:32:19 13° W 02:34:29 10° WNW visible
01 Mar 5.2 12:58:52 10° NE 13:03:06 26° E 13:07:18 10° SSE visible
02 Mar 6.3 12:24:42 10° ENE 12:25:56 11° E 12:27:09 10° ESE visible
02 Mar 3.0 14:00:23 10° N 14:05:28 76° WNW 14:10:32 10° SSW visible
03 Mar 4.1 13:23:44 10° NNE 13:28:37 46° E 13:33:29 10° S visible
04 Mar 5.6 12:47:51 10° NE 12:51:36 20° E 12:55:18 10° SE visible
05 Mar 3.1 13:48:57 10° NNE 13:54:03 84° ESE 13:59:08 10° SSW visible
06 Mar 4.7 13:12:29 10° NNE 13:17:09 36° E 13:21:47 10° SSE visible
07 Mar 6.0 12:37:01 10° NE 12:40:04 16° E 12:43:05 10° SE visible
